This is the latest recevied weather packets stored in our database for station/object W1SCW. If no packets are shown the sender has not sent any weather packets the latest 10 day(s).
| Time | Temp. | Humidity | Pressure | Rain* | Wind** | Luminosity | Snow |
|---|---|---|---|---|---|---|---|
| 1777858449 | 22.22° C | 53% | 1016.1 hPa | 0 mm | - | 0 W/m² | - |
| 1777858145 | 22.22° C | 52% | 1016.1 hPa | 0 mm | - | 0 W/m² | - |
| 1777857843 | 22.22° C | 51% | 1016.1 hPa | 0 mm | - | 0 W/m² | - |
| 1777857540 | 22.78° C | 51% | 1016.3 hPa | 0 mm | - | 0 W/m² | - |
| 1777857237 | 22.78° C | 50% | 1015.8 hPa | 0 mm | - | 0 W/m² | - |
| 1777856933 | 22.78° C | 49% | 1015.8 hPa | 0 mm | - | 1 W/m² | - |
| 1777856628 | 22.78° C | 49% | 1016 hPa | 0 mm | - | 2 W/m² | - |
| 1777856319 | 23.33° C | 49% | 1016 hPa | 0 mm | - | 4 W/m² | - |
| 1777856016 | 23.33° C | 49% | 1016.2 hPa | 0 mm | - | 7 W/m² | - |
| 1777855714 | 23.33° C | 48% | 1016 hPa | 0 mm | - | 10 W/m² | - |
| 1777855411 | 23.89° C | 47% | 1015.9 hPa | 0 mm | - | 15 W/m² | - |
| 1777855108 | 23.89° C | 47% | 1015.9 hPa | 0 mm | - | 23 W/m² | - |
| 1777854805 | 23.89° C | 46% | 1016 hPa | 0 mm | - | 26 W/m² | - |
| 1777854502 | 23.89° C | 46% | 1016 hPa | 0 mm | - | 21 W/m² | - |
| 1777854198 | 24.44° C | 45% | 1016 hPa | 0 mm | - | 19 W/m² | - |
| 1777853896 | 24.44° C | 44% | 1015.9 hPa | 0 mm | - | 21 W/m² | - |
| 1777853593 | 25° C | 43% | 1015.9 hPa | 0 mm | - | 26 W/m² | - |
| 1777853290 | 25.56° C | 41% | 1015.9 hPa | 0 mm | - | 46 W/m² | - |
| 1777852987 | 25.56° C | 41% | 1015.9 hPa | 0 mm | - | 71 W/m² | - |
| 1777852684 | 25.56° C | 41% | 1016.3 hPa | 0 mm | - | 75 W/m² | - |
| 1777852381 | 25.56° C | 42% | 1016.2 hPa | 0 mm | - | 92 W/m² | - |
| 1777852079 | 25.56° C | 39% | 1016.1 hPa | 0 mm | - | 77 W/m² | - |
| 1777851776 | 26.11° C | 36% | 1016.2 hPa | 0 mm | - | 71 W/m² | - |
| 1777851474 | 26.11° C | 37% | 1016 hPa | 0 mm | - | 129 W/m² | - |
| 1777851170 | 26.67° C | 36% | 1016.1 hPa | 0 mm | - | 140 W/m² | - |
* Rain latest hour (hover to see other rain measurements)
** Current wind speed in m/s (hover to see current wind gust speed)